Wrangell, AK

11:33 AM AKST on December 10, 2016 (GMT -0900)
Wrangell

Weather History for PAWG - October, 2014

Change the Weather History Date:

Thursday, October 2, 2014

  Actual Average Record
Temperature  
Mean Temperature 44 °F -  
Max Temperature 51 °F 53 °F 68 °F (1987)
Min Temperature 37 °F 41 °F 30 °F (1956)
Degree Days  
Heating Degree Days 21    
Moisture  
Dew Point 35 °F    
Average Humidity 71    
Maximum Humidity 87    
Minimum Humidity 38    
Precipitation  
Precipitation 0.94 in - - ()
Sea Level Pressure  
Sea Level Pressure 30.05 in    
Wind  
Wind Speed 9 mph (ESE)    
Max Wind Speed 22 mph    
Max Gust Speed 40 mph    
Visibility 9 miles    
Events      
Averages and records for this station are not official NWS values.
T = Trace of Precipitation, MM = Missing Value Source: NWS Daily Summary

Daily Weather History Graph

Daily Weather History Graph

Search for Another Location

Airport or City:

Trip Planner

Search our weather history database for the weather conditions in past years. The results will help you decide how hot, cold, wet, or windy it might be!

Date:

Astronomy

Oct. 02, 2014 Rise Set
Actual Time 6:55 AM AKDT 6:21 PM AKDT
Civil Twilight 6:17 AM AKDT 6:58 PM AKDT
Nautical Twilight 5:33 AM AKDT 7:42 PM AKDT
Astronomical Twilight 4:48 AM AKDT 8:27 PM AKDT
Moon 3:30 PM AKDT (10/2) No Moon Set
Length of Visible Light 12h 40m
Length of Day
11h 26m
First Quarter, 62% of the Moon is Illuminated
Oct 2
First Quarter
Oct 8
Full
Oct 15
Last Quarter
Oct 23
New
Oct 30
First Quarter

Hourly Weather History & Observations

Time (AKDT) Temp. Windchill Dew Point Humidity Pressure Visibility Wind Dir Wind Speed Gust Speed Precip Events Conditions
12:16 AM 39.2 °F 35.9 °F 32.0 °F 75% 30.29 in 10.0 mi SE 4.6 mph - N/A   Clear
12:36 AM 39.2 °F 34.2 °F 33.8 °F 81% 30.29 in 10.0 mi ESE 6.9 mph - N/A   Clear
12:56 AM 37.4 °F 32.1 °F 33.8 °F 87% 30.29 in 10.0 mi SE 6.9 mph - N/A   Clear
1:16 AM 39.2 °F 35.0 °F 33.8 °F 81% 30.29 in 10.0 mi SE 5.8 mph - N/A   Clear
1:36 AM 37.4 °F 32.1 °F 32.0 °F 81% 30.29 in 10.0 mi SSE 6.9 mph - N/A   Clear
1:56 AM 37.4 °F 32.1 °F 32.0 °F 81% 30.29 in 10.0 mi SSE 6.9 mph - N/A   Clear
2:16 AM 37.4 °F 31.4 °F 30.2 °F 75% 30.29 in 10.0 mi SSE 8.1 mph - N/A   Clear
2:36 AM 37.4 °F 34.9 °F 33.8 °F 87% 30.29 in 10.0 mi ESE 3.5 mph - N/A   Clear
2:56 AM 37.4 °F 32.1 °F 33.8 °F 87% 30.29 in 10.0 mi ESE 6.9 mph - N/A   Clear
3:16 AM 39.2 °F 33.0 °F 33.8 °F 81% 30.28 in 10.0 mi ESE 9.2 mph - N/A   Clear
3:36 AM 44.6 °F 40.7 °F 39.2 °F 81% 30.07 in 10.0 mi ESE 6.9 mph - N/A   Overcast
3:56 AM 44.6 °F 43.1 °F 39.2 °F 81% 30.07 in 10.0 mi SE 3.5 mph - N/A   Overcast
4:16 AM 44.6 °F 43.1 °F 39.2 °F 81% 30.08 in 10.0 mi SSE 3.5 mph - N/A   Overcast
4:36 AM 37.4 °F 30.3 °F 32.0 °F 81% 30.26 in 10.0 mi SE 10.4 mph - N/A   Clear
4:56 AM 37.4 °F 30.8 °F 32.0 °F 81% 30.26 in 10.0 mi SE 9.2 mph - N/A   Clear
5:16 AM 39.2 °F 32.5 °F 33.8 °F 81% 30.26 in 10.0 mi SE 10.4 mph - N/A   Clear
5:36 AM 39.2 °F 32.0 °F 33.8 °F 81% 30.25 in 10.0 mi SE 11.5 mph 16.1 mph N/A   Clear
5:56 AM 39.2 °F 33.0 °F 32.0 °F 75% 30.24 in 10.0 mi SE 9.2 mph - N/A   Clear
6:16 AM 39.2 °F 32.0 °F 33.8 °F 81% 30.24 in 10.0 mi SE 11.5 mph - N/A   Clear
6:36 AM 39.2 °F 32.5 °F 32.0 °F 75% 30.23 in 10.0 mi SE 10.4 mph - N/A   Clear
6:56 AM 39.2 °F 34.2 °F 32.0 °F 75% 30.22 in 10.0 mi SE 6.9 mph - N/A   Clear
7:16 AM 39.2 °F 33.6 °F 32.0 °F 75% 30.22 in 10.0 mi SE 8.1 mph - N/A   Clear
7:36 AM 41.0 °F 34.7 °F 32.0 °F 70% 30.21 in 10.0 mi ESE 10.4 mph - N/A   Clear
7:56 AM 41.0 °F 34.7 °F 33.8 °F 76% 30.21 in 10.0 mi ESE 10.4 mph - N/A   Scattered Clouds
8:16 AM 42.8 °F 37.5 °F 32.0 °F 66% 30.20 in 10.0 mi SE 9.2 mph 16.1 mph N/A   Scattered Clouds
8:36 AM 42.8 °F 37.0 °F 32.0 °F 66% 30.20 in 10.0 mi ESE 10.4 mph - N/A   Scattered Clouds
8:56 AM 42.8 °F 38.0 °F 32.0 °F 66% 30.19 in 10.0 mi SE 8.1 mph - N/A   Overcast
9:16 AM 42.8 °F 37.0 °F 33.8 °F 70% 30.18 in 10.0 mi ESE 10.4 mph 16.1 mph N/A   Overcast
9:36 AM 44.6 °F 39.2 °F 32.0 °F 61% 30.17 in 10.0 mi ESE 10.4 mph - N/A   Overcast
9:56 AM 44.6 °F 38.4 °F 30.2 °F 57% 30.17 in 10.0 mi ESE 12.7 mph - N/A   Overcast
10:16 AM 44.6 °F 38.8 °F 32.0 °F 61% 30.17 in 10.0 mi ESE 11.5 mph 16.1 mph N/A   Overcast
10:36 AM 44.6 °F 38.4 °F 32.0 °F 61% 30.15 in 10.0 mi East 12.7 mph - N/A   Overcast
10:56 AM 44.6 °F 40.2 °F 32.0 °F 61% 30.15 in 10.0 mi SE 8.1 mph - N/A   Overcast
11:16 AM 44.6 °F 38.4 °F 32.0 °F 61% 30.14 in 10.0 mi East 12.7 mph 19.6 mph N/A   Overcast
11:36 AM 46.4 °F 40.4 °F 32.0 °F 57% 30.13 in 10.0 mi East 13.8 mph - N/A   Overcast
11:56 AM 46.4 °F 39.5 °F 30.2 °F 53% 30.12 in 10.0 mi East 17.3 mph - N/A   Overcast
12:16 PM 46.4 °F 40.7 °F 32.0 °F 57% 30.11 in 10.0 mi East 12.7 mph - N/A   Overcast
12:36 PM 46.4 °F 40.1 °F 32.0 °F 57% 30.09 in 10.0 mi East 15.0 mph - N/A   Overcast
12:56 PM 46.4 °F 41.5 °F 33.8 °F 62% 30.09 in 10.0 mi East 10.4 mph - N/A   Overcast
1:16 PM 46.4 °F 42.9 °F 33.8 °F 62% 30.08 in 10.0 mi NE 6.9 mph - N/A   Overcast
1:36 PM 48.2 °F - 32.0 °F 54% 30.06 in 10.0 mi East 9.2 mph 16.1 mph N/A   Overcast
1:56 PM 50.0 °F - 30.2 °F 47% 30.04 in 10.0 mi East 10.4 mph - N/A   Overcast
2:16 PM 46.4 °F 42.9 °F 33.8 °F 62% 30.03 in 10.0 mi East 6.9 mph - N/A   Overcast
2:36 PM 51.8 °F - 28.4 °F 41% 30.00 in 10.0 mi SE 20.7 mph 32.2 mph N/A   Overcast
2:56 PM 51.8 °F - 26.6 °F 38% 30.00 in 10.0 mi SE 10.4 mph 17.3 mph N/A   Overcast
3:16 PM 48.2 °F - 32.0 °F 54% 30.00 in 10.0 mi SSE 12.7 mph 40.3 mph N/A   Overcast
3:36 PM 44.6 °F 36.1 °F 35.6 °F 71% 29.99 in 10.0 mi East 21.9 mph 34.5 mph 0.02 in   Overcast
3:56 PM 44.6 °F 37.4 °F 35.6 °F 71% 29.99 in 8.0 mi East 16.1 mph 29.9 mph 0.03 in   Overcast
4:16 PM 44.6 °F 38.1 °F 35.6 °F 71% 29.98 in 8.0 mi East 13.8 mph 19.6 mph 0.01 in   Overcast
4:36 PM 44.6 °F 37.4 °F 35.6 °F 71% 29.95 in 8.0 mi ENE 16.1 mph 21.9 mph 0.05 in   Overcast
4:56 PM 42.8 °F 35.4 °F 35.6 °F 76% 29.92 in 5.0 mi East 15.0 mph 23.0 mph 0.10 in   Overcast
5:16 PM 42.8 °F 36.2 °F 35.6 °F 76% 29.91 in 5.0 mi East 12.7 mph 23.0 mph 0.04 in   Overcast
5:36 PM 42.8 °F 36.2 °F 35.6 °F 76% 29.89 in 5.0 mi East 12.7 mph 19.6 mph 0.11 in   Overcast
5:56 PM 44.6 °F 39.2 °F 37.4 °F 76% 29.86 in 5.0 mi East 10.4 mph 18.4 mph 0.16 in   Overcast
6:16 PM 44.6 °F 37.4 °F 37.4 °F 76% 29.85 in 5.0 mi ESE 16.1 mph 25.3 mph 0.05 in   Overcast
6:36 PM 46.4 °F 39.8 °F 35.6 °F 66% 29.83 in 5.0 mi SE 16.1 mph 26.5 mph 0.07 in   Overcast
6:56 PM 46.4 °F 41.1 °F 37.4 °F 71% 29.82 in 6.0 mi SE 11.5 mph 24.2 mph 0.11 in   Overcast
7:16 PM 46.4 °F 41.1 °F 37.4 °F 71% 29.80 in 6.0 mi ESE 11.5 mph 19.6 mph 0.03 in   Overcast
7:36 PM 46.4 °F 39.8 °F 39.2 °F 76% 29.78 in 6.0 mi SE 16.1 mph 21.9 mph 0.04 in   Overcast
7:56 PM 46.4 °F 40.1 °F 37.4 °F 71% 29.77 in 8.0 mi SE 15.0 mph 20.7 mph 0.08 in   Overcast
8:16 PM 48.2 °F - 39.2 °F 71% 29.76 in 8.0 mi SE 15.0 mph 21.9 mph 0.06 in   Overcast
8:36 PM 48.2 °F - 39.2 °F 71% 29.76 in 8.0 mi SE 16.1 mph 21.9 mph 0.12 in   Overcast
8:56 PM 48.2 °F - 39.2 °F 71% 29.75 in 8.0 mi SE 16.1 mph 24.2 mph 0.18 in   Overcast
9:16 PM 48.2 °F - 41.0 °F 76% 29.75 in 8.0 mi ESE 12.7 mph 23.0 mph 0.08 in   Overcast
9:36 PM 46.4 °F 40.7 °F 41.0 °F 81% 29.75 in 8.0 mi ESE 12.7 mph 23.0 mph 0.15 in   Overcast
9:56 PM 46.4 °F 40.7 °F 41.0 °F 81% 29.74 in 8.0 mi East 12.7 mph 19.6 mph 0.20 in   Overcast
10:16 PM 48.2 °F - 42.8 °F 82% 29.73 in 8.0 mi ESE 16.1 mph 19.6 mph N/A   Overcast
10:36 PM 48.2 °F - 42.8 °F 82% 29.72 in 8.0 mi SE 15.0 mph 21.9 mph N/A   Overcast
10:56 PM 48.2 °F - 42.8 °F 82% 29.73 in 8.0 mi ESE 10.4 mph 19.6 mph 0.04 in   Overcast
11:16 PM 48.2 °F - 42.8 °F 82% 29.72 in 8.0 mi East 12.7 mph 18.4 mph 0.03 in   Overcast
11:36 PM 48.2 °F - 44.6 °F 87% 29.71 in 9.0 mi East 12.7 mph 20.7 mph 0.04 in   Overcast
11:56 PM 50.0 °F - 42.8 °F 76% 29.69 in 10.0 mi ESE 13.8 mph 18.4 mph 0.04 in   Overcast